"2016-04-24 00:00:00",1573851,14.77,294.2,7.608,2.179,20.72,106.373,15.59,16.57,24.71,0,110.7,13.13,16.39,256.2
"2016-04-24 00:00:30",1573852,11.98,285.9,5.381,1.053,20.98,106.4136,15.69,16.61,23.45,0,110.7,13.13,16.50,247.9
"2016-04-24 00:01:00",1573853,12.75,298.9,5.404,1.681,19.8,106.4595,15.81,16.66,24.14,0,110.7,13.13,16.62,260.9
"2016-04-24 00:01:30",1573854,15.93,302,1.765,0.469,17.7,106.491,15.89,16.73,29.45,0,110.7,13.12,16.70,264.0
"2016-04-24 00:02:00",1573855,18.3,300.3,2.182,0.431,18.78,106.5177,15.96,16.78,27.81,0,110.7,13.12,16.77,262.3
"2016-04-24 00:02:30",1573856,16.83,306.7,2.121,0.772,18.76,106.5203,15.97,16.83,26.58,0,110.7,13.12,16.77,268.7
"2016-04-24 00:03:00",1573857,15.43,307.5,3.328,0.994,19.37,106.5296,15.99,16.86,25.84,0,110.7,13.12,16.80,269.5
"2016-04-24 00:03:30",1573858,14.69,310.8,2.074,0.752,18.45,106.5462,16.03,16.91,27.28,0,110.7,13.12,16.84,272.8
"2016-04-24 00:04:00",1573859,13.19,307.8,1.623,0.459,18.26,106.5453,16.03,16.93,28.76,0,110.7,13.12,16.84,269.8
"2016-04-24 00:04:30",1573860,13.13,301.7,2.688,0.444,18.24,106.5299,15.99,16.94,29.16,0,110.7,13.13,16.80,263.7
"2016-04-24 00:05:00",1573861,12.05,299.6,2.19,1.41,18.25,106.5209,15.97,16.93,29.38,0,110.7,13.12,16.78,261.6
"2016-04-24 00:05:30",1573862,10.62,299.9,2.977,0.45,18.74,106.5127,15.95,16.94,28.56,0,110.7,13.13,16.75,261.9
"2016-04-24 00:06:00",1573863,9.32,304.1,2.764,0.658,18.82,106.4883,15.88,16.93,28.38,0,110.7,13.12,16.69,266.1
"2016-04-24 00:06:30",1573864,10.45,310.2,1.663,0.619,18.37,106.4904,15.89,16.91,29.31,0,110.7,13.13,16.70,272.2
"2016-04-24 00:07:00",1573865,12.6,309.9,5.583,1.246,19.68,106.468,15.83,16.99,30.17,0,110.7,13.08,16.64,271.9
"2016-04-24 00:07:30",1573866,13.68,303.5,7.795,1.632,20.78,106.4592,15.81,16.97,29.51,0,110.7,13.08,16.62,265.5
"2016-04-24 00:08:00",1573867,13.07,287.4,4.82,0.734,19.58,106.435,15.75,16.84,26.93,0,110.7,13.13,16.55,249.4
"2016-04-24 00:08:30",1573868,8.67,298.7,29.74,2.857,19.76,106.4363,15.75,16.8,25.65,0,110.7,13.13,16.56,260.7
"2016-04-24 00:09:00",1573869,6.793,314,11.68,2.688,19.68,106.4475,15.78,16.77,24.62,0,110.7,13.13,16.59,276.0
"2016-04-24 00:09:30",1573870,11.25,315.9,2.033,0.811,18.37,106.4686,15.83,16.78,26.43,0,110.7,13.13,16.64,277.9
"2016-04-24 00:10:00",1573871,12.8,310,1.103,0.496,18.28,106.4765,15.85,16.77,27.74,0,110.7,13.13,16.66,272.0
"2016-04-24 00:10:30",1573872,11.9,309.6,0.967,0.379,18.46,106.4622,15.82,16.78,27.37,0,110.7,13.14,16.62,271.6
"2016-04-24 00:11:00",1573873,11.79,312.5,1.3,0.693,18.26,106.4552,15.8,16.78,28.23,0,110.7,13.13,16.61,274.5
"2016-04-24 00:11:30",1573874,13.11,313.3,0.615,0.482,18.13,106.4549,15.8,16.77,28.6,0,110.7,13.14,16.61,275.3
"2016-04-24 00:12:00",1573875,13.76,313.5,0.981,0.228,18.02,106.4374,15.75,16.76,29.51,0,110.7,13.14,16.56,275.5
"2016-04-24 00:12:30",1573876,14.34,318.5,7.257,1.503,20.08,106.4208,15.71,16.84,30.46,0,110.7,13.09,16.52,280.5
"2016-04-24 00:13:00",1573877,13.53,317.8,7.167,1.21,19.27,106.3912,15.64,16.86,30.44,0,110.7,13.09,16.44,279.8
"2016-04-24 00:13:30",1573878,12.67,315.4,5.434,0.949,18.97,106.3769,15.6,16.78,30.41,0,110.7,13.09,16.40,277.4
"2016-04-24 00:14:00",1573879,12.02,316.1,7.267,1.521,19.37,106.3529,15.54,16.74,29.35,0,110.7,13.09,16.34,278.1
"2016-04-24 00:14:30",1573880,10.93,311.3,3.142,0.762,18.16,106.3287,15.47,16.67,29.21,0,110.7,13.14,16.28,273.3
"2016-04-24 00:15:00",1573881,11,311.9,1.232,0.269,17.66,106.3175,15.45,16.54,29.34,0,110.7,13.14,16.25,273.9
"2016-04-24 00:15:30",1573882,11.86,308.5,2.554,0.301,17.98,106.2901,15.38,16.51,29.13,0,110.6,13.14,16.18,270.5
"2016-04-24 00:16:00",1573883,10.96,309,1.031,0.316,17.94,106.2851,15.36,16.47,29.42,0,110.6,13.14,16.17,271.0
"2016-04-24 00:16:30",1573884,10.66,306.8,0.95,0.266,18.05,106.262,15.3,16.43,29.59,0,110.6,13.14,16.11,268.8
"2016-04-24 00:17:00",1573885,10.41,309,1.625,0.291,18.23,106.2521,15.28,16.4,29.69,0,110.6,13.14,16.08,271.0
"2016-04-24 00:17:30",1573886,11.18,307.6,1.536,0.434,18.38,106.2448,15.26,16.37,29.43,0,110.6,13.14,16.07,269.6
"2016-04-24 00:18:00",1573887,11.12,302,2.16,0.455,18.56,106.2226,15.2,16.34,29.06,0,110.6,13.13,16.01,264.0
"2016-04-24 00:18:30",1573888,11.43,302.2,3.459,0.275,18.64,106.2201,15.2,16.32,28.77,0,110.6,13.13,16.00,264.2
"2016-04-24 00:19:00",1573889,11.26,299.8,1.371,0.334,18.55,106.2213,15.2,16.29,28.92,0,110.6,13.13,16.00,261.8
"2016-04-24 00:19:30",1573890,11.04,297.9,1.958,0.161,18.49,106.2231,15.2,16.27,29.16,0,110.6,13.14,16.01,259.9
"2016-04-24 00:20:00",1573891,11.03,295.7,1.64,0.297,18.71,106.2207,15.2,16.26,29.17,0,110.6,13.14,16.00,257.7
"2016-04-24 00:20:30",1573892,11.08,299.6,3.383,0.299,18.7,106.2188,15.19,16.24,28.78,0,110.6,13.14,16.00,261.6
"2016-04-24 00:21:00",1573893,10.65,300.3,2.344,0.661,18.69,106.2197,15.2,16.24,28.91,0,110.6,13.14,16.00,262.3
"2016-04-24 00:21:30",1573894,9.69,302.1,1.619,0.231,18.55,106.222,15.2,16.24,29.23,0,110.6,13.14,16.01,264.1
"2016-04-24 00:22:00",1573895,9.9,306.1,1.136,0.364,18.72,106.2226,15.2,16.23,29.21,0,110.6,13.14,16.01,268.1
"2016-04-24 00:22:30",1573896,10.21,300.1,1.954,0.554,18.77,106.2313,15.23,16.23,29.07,0,110.6,13.14,16.03,262.1
"2016-04-24 00:23:00",1573897,9.68,304,2.302,0.343,18.73,106.2336,15.23,16.23,29.06,0,110.6,13.14,16.04,266.0
"2016-04-24 00:23:30",1573898,8.99,307.3,3.258,0.346,18.58,106.2393,15.25,16.24,29.39,0,110.6,13.14,16.05,269.3
"2016-04-24 00:24:00",1573899,8.43,307.7,2.26,0.223,18.6,106.2446,15.26,16.25,29.4,0,110.6,13.14,16.06,269.7
"2016-04-24 00:24:30",1573900,8.61,305.3,1.262,0.222,18.63,106.2464,15.26,16.23,29.47,0,110.6,13.15,16.07,267.3
"2016-04-24 00:25:00",1573901,9.12,306.4,3.483,0.403,18.6,106.2458,15.26,16.24,29.57,0,110.6,13.15,16.07,268.4
"2016-04-24 00:25:30",1573902,9.34,303.1,2.15,0.279,18.55,106.2512,15.28,16.26,29.8,0,110.6,13.15,16.08,265.1
"2016-04-24 00:26:00",1573903,8.91,302.4,2.434,0.283,18.5,106.2533,15.28,16.25,29.97,0,110.6,13.15,16.09,264.4
"2016-04-24 00:26:30",1573904,8.74,304.9,2.114,0.417,18.52,106.2536,15.28,16.25,30.19,0,110.6,13.15,16.09,266.9
"2016-04-24 00:27:00",1573905,8.51,303.7,1.992,0.183,18.4,106.2542,15.28,16.25,30.46,0,110.6,13.15,16.09,265.7
"2016-04-24 00:27:30",1573906,8.63,300.7,2.319,0.399,18.44,106.2542,15.28,16.25,30.52,0,110.6,13.15,16.09,262.7
"2016-04-24 00:28:00",1573907,7.496,305.1,2.421,0.317,18.4,106.2537,15.28,16.25,30.62,0,110.6,13.15,16.09,267.1
"2016-04-24 00:28:30",1573908,7.889,308.6,1.406,0.541,18.46,106.2494,15.27,16.24,30.63,0,110.6,13.15,16.08,270.6
"2016-04-24 00:29:00",1573909,8.22,307,2.562,0.254,18.46,106.2427,15.25,16.25,30.6,0,110.6,13.15,16.06,269.0
"2016-04-24 00:29:30",1573910,8.17,309.1,1.815,0.265,18.43,106.2277,15.22,16.23,30.73,0,110.6,13.15,16.02,271.1
"2016-04-24 00:30:00",1573911,8.63,311.3,1.91,0.449,18.42,106.2204,15.2,16.24,30.89,0,110.6,13.15,16.00,273.3
"2016-04-24 00:30:30",1573912,8.4,308,2.577,0.394,18.54,106.2204,15.2,16.22,30.7,0,110.6,13.15,16.00,270.0
"2016-04-24 00:31:00",1573913,7.718,311.2,2.507,0.376,18.46,106.2204,15.2,16.22,30.84,0,110.6,13.15,16.00,273.2
"2016-04-24 00:31:30",1573914,8.23,309.8,2.686,0.867,18.47,106.219,15.19,16.21,30.92,0,110.6,13.15,16.00,271.8
"2016-04-24 00:32:00",1573915,9.74,308.9,2.352,0.369,18.66,106.1998,15.14,16.2,30.31,0,110.6,13.15,15.95,270.9
"2016-04-24 00:32:30",1573916,8.94,310,3.917,0.493,18.59,106.1886,15.12,16.18,30.44,0,110.6,13.15,15.92,272.0
"2016-04-24 00:33:00",1573917,8.56,306.1,3.09,0.36,18.53,106.1866,15.11,16.17,30.47,0,110.6,13.15,15.92,268.1
"2016-04-24 00:33:30",1573918,8.34,308.1,1.025,0.315,18.53,106.1866,15.11,16.15,30.53,0,110.6,13.15,15.92,270.1
"2016-04-24 00:34:00",1573919,8.49,311.5,3.233,0.511,18.52,106.1866,15.11,16.16,30.85,0,110.6,13.15,15.92,273.5
"2016-04-24 00:34:30",1573920,8.98,309,2.604,0.534,18.68,106.1866,15.11,16.14,30.38,0,110.6,13.15,15.92,271.0
"2016-04-24 00:35:00",1573921,8.21,312.4,1.73,0.231,18.53,106.1866,15.11,16.13,30.52,0,110.6,13.16,15.92,274.4
"2016-04-24 00:35:30",1573922,8.01,313.7,3.194,0.407,18.39,106.1838,15.1,16.12,31.2,0,110.6,13.15,15.91,275.7
"2016-04-24 00:36:00",1573923,7.925,309,1.257,0.381,18.45,106.1779,15.09,16.12,31.16,0,110.6,13.15,15.89,271.0
"2016-04-24 00:36:30",1573924,8.14,309.4,2.943,0.375,18.52,106.1677,15.06,16.13,31.11,0,110.6,13.15,15.87,271.4
"2016-04-24 00:37:00",1573925,8.01,311.2,2.728,0.416,18.56,106.1542,15.03,16.11,31.03,0,110.6,13.15,15.83,273.2
"2016-04-24 00:37:30",1573926,8.26,309.7,2.048,0.489,18.57,106.1528,15.02,16.09,31.11,0,110.6,13.15,15.83,271.7
"2016-04-24 00:38:00",1573927,8.6,312.4,5.223,0.506,18.52,106.1528,15.02,16.09,31.17,0,110.6,13.15,15.83,274.4
"2016-04-24 00:38:30",1573928,8.47,310.1,3.236,0.659,18.53,106.1528,15.02,16.1,31.23,0,110.6,13.15,15.83,272.1
"2016-04-24 00:39:00",1573929,8.66,309.7,2.642,0.568,18.27,106.1528,15.02,16.08,31.46,0,110.6,13.15,15.83,271.7
"2016-04-24 00:39:30",1573930,7.452,307.3,4.456,0.2,18.59,106.1514,15.02,16.07,31.5,0,110.6,13.15,15.83,269.3
"2016-04-24 00:40:00",1573931,8.04,308.7,2.413,0.704,18.54,106.1455,15.01,16.06,31.33,0,110.6,13.15,15.81,270.7
"2016-04-24 00:40:30",1573932,8.61,306,5.453,0.455,18.64,106.141,14.99,16.05,31.1,0,110.6,13.15,15.80,268.0
"2016-04-24 00:41:00",1573933,8.48,308.7,3.711,0.285,18.55,106.1365,14.98,16.05,31.16,0,110.6,13.15,15.79,270.7
"2016-04-24 00:41:30",1573934,8.03,309.6,2.773,0.595,18.49,106.1342,14.98,16.04,31.38,0,110.6,13.15,15.78,271.6
"2016-04-24 00:42:00",1573935,8.01,309.4,4.188,0.585,18.5,106.1256,14.95,16.03,31.28,0,110.6,13.16,15.76,271.4
"2016-04-24 00:42:30",1573936,7.905,311,2.867,0.818,18.4,106.1259,14.96,16.04,31.68,0,110.6,13.16,15.76,273.0
"2016-04-24 00:43:00",1573937,8.41,311.4,2.368,0.421,18.53,106.1271,14.96,16.02,31.6,0,110.6,13.16,15.76,273.4
"2016-04-24 00:43:30",1573938,8.23,315.4,3.897,0.56,18.52,106.128,14.96,16,31.62,0,110.6,13.16,15.76,277.4
"2016-04-24 00:44:00",1573939,8.87,316,4.665,0.406,18.59,106.1257,14.95,16,31.63,0,110.6,13.16,15.76,278.0
"2016-04-24 00:44:30",1573940,8.9,309.2,2.119,0.33,18.54,106.1209,14.94,16,31.52,0,110.6,13.16,15.75,271.2
"2016-04-24 00:45:00",1573941,8.26,311.8,2.788,0.478,18.41,106.1167,14.93,15.99,31.76,0,110.6,13.17,15.74,273.8
"2016-04-24 00:45:30",1573942,8.83,310.6,5.87,0.387,18.53,106.1126,14.92,15.97,31.86,0,110.6,13.17,15.73,272.6
"2016-04-24 00:46:00",1573943,8.1,309.1,2.776,0.598,18.53,106.1046,14.9,15.97,31.39,0,110.6,13.17,15.70,271.1
"2016-04-24 00:46:30",1573944,8.95,313.5,2.768,0.876,18.42,106.1031,14.9,15.96,32.02,0,110.6,13.17,15.70,275.5
"2016-04-24 00:47:00",1573945,9.92,306.8,5.12,0.851,18.51,106.104,14.9,15.95,31.78,0,110.6,13.17,15.70,268.8
"2016-04-24 00:47:30",1573946,8.76,313.8,3.219,0.563,18.5,106.1067,14.91,15.95,31.82,0,110.6,13.17,15.71,275.8
"2016-04-24 00:48:00",1573947,9.09,310,3.815,0.801,18.5,106.1073,14.91,15.93,31.63,0,110.6,13.17,15.71,272.0
"2016-04-24 00:48:30",1573948,9,312,2.963,0.61,18.45,106.1088,14.91,15.94,31.79,0,110.6,13.17,15.72,274.0
"2016-04-24 00:49:00",1573949,8.85,312.2,2.479,0.494,18.37,106.1104,14.92,15.92,31.99,0,110.6,13.17,15.72,274.2
"2016-04-24 00:49:30",1573950,9.58,306.5,2.917,0.359,18.43,106.1051,14.9,15.93,31.8,0,110.6,13.17,15.71,268.5
"2016-04-24 00:50:00",1573951,9.75,312.9,3.554,0.814,18.39,106.102,14.89,15.91,31.93,0,110.6,13.17,15.70,274.9
"2016-04-24 00:50:30",1573952,9.55,310.7,4.265,0.399,18.32,106.0965,14.88,15.91,32.19,0,110.6,13.17,15.68,272.7
"2016-04-24 00:51:00",1573953,10.64,305.1,4.345,1.441,18.41,106.0981,14.88,15.9,32.09,0,110.6,13.17,15.69,267.1
"2016-04-24 00:51:30",1573954,12.22,306,3.984,0.608,18.48,106.0899,14.86,15.89,31.5,0,110.6,13.16,15.67,268.0
"2016-04-24 00:52:00",1573955,12.36,309.4,2.122,0.581,18.49,106.086,14.85,15.88,31.41,0,110.6,13.16,15.66,271.4
"2016-04-24 00:52:30",1573956,11.52,307.1,2.634,0.566,18.34,106.0857,14.85,15.87,31.73,0,110.6,13.16,15.66,269.1
"2016-04-24 00:53:00",1573957,12.6,304.9,3.723,0.492,18.41,106.0866,14.85,15.87,31.58,0,110.6,13.16,15.66,266.9
"2016-04-24 00:53:30",1573958,11.58,304.4,4.327,0.548,18.51,106.0869,14.86,15.87,30.95,0,110.6,13.16,15.66,266.4
"2016-04-24 00:54:00",1573959,10.15,306.6,2.829,0.378,18.39,106.0872,14.86,15.87,31.29,0,110.6,13.16,15.66,268.6
"2016-04-24 00:54:30",1573960,10.95,310.7,2.913,0.69,18.27,106.0869,14.86,15.85,31.84,0,110.6,13.16,15.66,272.7
"2016-04-24 00:55:00",1573961,11.53,305.8,4.236,0.667,18.32,106.0872,14.86,15.86,31.74,0,110.6,13.16,15.66,267.8
"2016-04-24 00:55:30",1573962,12.44,303.7,2.792,0.461,18.37,106.085,14.85,15.85,31.5,0,110.6,13.16,15.65,265.7
"2016-04-24 00:56:00",1573963,12.41,305,3.808,0.647,18.34,106.0816,14.84,15.84,31.68,0,110.6,13.16,15.65,267.0
"2016-04-24 00:56:30",1573964,11.71,303.5,3.791,0.468,18.29,106.0791,14.84,15.84,31.93,0,110.6,13.16,15.64,265.5
"2016-04-24 00:57:00",1573965,11.33,309.8,2.234,0.344,18.21,106.0726,14.82,15.83,32.25,0,110.6,13.16,15.62,271.8
"2016-04-24 00:57:30",1573966,11.85,308.7,2.541,0.406,18.32,106.0605,14.79,15.83,32.21,0,110.6,13.16,15.59,270.7
"2016-04-24 00:58:00",1573967,12.33,308.1,1.885,0.407,18.37,106.0546,14.77,15.82,32.1,0,110.6,13.16,15.58,270.1
"2016-04-24 00:58:30",1573968,12.65,310.4,3.528,1.441,18.34,106.0534,14.77,15.81,32.03,0,110.6,13.17,15.57,272.4
"2016-04-24 00:59:00",1573969,12.84,306,5.934,1.127,18.35,106.0534,14.77,15.79,31.08,0,110.6,13.17,15.57,268.0
"2016-04-24 00:59:30",1573970,12.37,303.5,4.231,0.982,18.29,106.0534,14.77,15.79,31.34,0,110.6,13.17,15.57,265.5
"2016-04-24 01:00:00",1573971,12.1,306.6,3.297,0.736,18.17,106.0534,14.77,15.78,31.78,0,110.6,13.17,15.57,268.6
"2016-04-24 01:00:30",1573972,13.42,301.3,4.11,0.698,18.15,106.0526,14.77,15.78,31.93,0,110.6,13.17,15.57,263.3
"2016-04-24 01:01:00",1573973,15.23,296.6,2.251,1.935,18.1,106.0481,14.76,15.77,31.65,0,110.6,13.17,15.56,258.6
"2016-04-24 01:01:30",1573974,17,298.2,3.696,0.994,18.12,106.0405,14.74,15.76,31.36,0,110.6,13.17,15.54,260.2
"2016-04-24 01:02:00",1573975,14.64,302.3,9.74,1.503,18.38,106.0241,14.69,15.83,31.8,0,110.6,13.17,15.50,264.3
"2016-04-24 01:02:30",1573976,16.74,309.3,10.47,1.089,20.44,106.0196,14.68,15.84,32.04,0,110.6,13.12,15.49,271.3
"2016-04-24 01:03:00",1573977,14.51,304.7,9.55,1.748,19.07,106.0193,14.68,15.84,32.1,0,110.6,13.12,15.49,266.7
"2016-04-24 01:03:30",1573978,15.6,301.1,7.538,1.411,18.58,106.0109,14.66,15.81,32.45,0,110.6,13.12,15.46,263.1
"2016-04-24 01:04:00",1573979,16.63,301.4,8.4,1.773,19.17,105.9937,14.62,15.86,32.43,0,110.6,13.12,15.42,263.4
"2016-04-24 01:04:30",1573980,14.9,309,9.06,1.872,19.51,105.9855,14.6,15.83,32.85,0,110.6,13.12,15.40,271.0
"2016-04-24 01:05:00",1573981,12.54,307.5,9.35,1.483,18.29,105.963,14.54,15.69,33.59,0,110.6,13.12,15.34,269.5
"2016-04-24 01:05:30",1573982,13.79,301.4,6.657,1.949,16.76,105.939,14.48,15.53,33.23,0,110.6,13.17,15.28,263.4
"2016-04-24 01:06:00",1573983,16.39,300.9,5.545,1.686,16.95,105.9173,14.42,15.53,33.6,0,110.6,13.17,15.22,262.9
"2016-04-24 01:06:30",1573984,22.77,309.8,11.02,3.137,18.24,105.8939,14.36,15.61,34.37,0,110.6,13.12,15.16,271.8
"2016-04-24 01:07:00",1573985,24.97,309.1,6.302,1.756,18.62,105.8562,14.26,15.65,34.72,0,110.6,13.12,15.07,271.1
"2016-04-24 01:07:30",1573986,24.34,304.8,6.474,1.349,19.36,105.7964,14.11,15.63,33.96,0,110.6,13.12,14.91,266.8
"2016-04-24 01:08:00",1573987,23.84,307.3,7.41,1.384,19.6,105.735,13.95,15.5,33.87,0,110.6,13.12,14.75,269.3
"2016-04-24 01:08:30",1573988,23.97,305.7,6.397,1.46,18.73,105.6775,13.81,15.41,34.56,0,110.6,13.12,14.61,267.7
"2016-04-24 01:09:00",1573989,24.56,301.2,6.69,1.378,17.67,105.6121,13.64,15.28,37.2,0,110.6,13.12,14.44,263.2
"2016-04-24 01:09:30",1573990,26.32,300.6,6.09,1.723,17.24,105.5236,13.41,15.16,38.16,0,110.6,13.11,14.21,262.6
"2016-04-24 01:10:00",1573991,26.1,301.7,6.89,1.834,17.26,105.4241,13.16,14.96,38.76,0,110.6,13.11,13.96,263.7
"2016-04-24 01:10:30",1573992,26.93,299.3,7.45,1.539,17.16,105.3244,12.9,14.7,39.47,0,110.5,13.11,13.70,261.3
"2016-04-24 01:11:00",1573993,27.08,299.7,6.799,1.337,17.85,105.2308,12.66,14.52,39.78,0,110.5,13.11,13.46,261.7
"2016-04-24 01:11:30",1573994,25.05,302,6.57,1.617,18.39,105.1472,12.45,14.33,39.01,0,110.6,13.11,13.24,264.0
"2016-04-24 01:12:00",1573995,25.23,297.2,6.94,1.393,17.52,105.0843,12.29,14.15,40.3,0,110.5,13.11,13.08,259.2
"2016-04-24 01:12:30",1573996,24.53,293.6,6.552,1.361,17.8,105.0224,12.13,13.97,40.86,0,110.5,13.11,12.92,255.6
"2016-04-24 01:13:00",1573997,23.49,292,7.224,1.425,18.23,104.9707,12,13.77,40.75,0,110.5,13.11,12.79,254.0
"2016-04-24 01:13:30",1573998,24.22,292.7,6.99,2.116,16.85,104.93,11.89,13.62,42.71,0,110.5,13.11,12.69,254.7
"2016-04-24 01:14:00",1573999,24.36,291.5,6.89,1.709,16.82,104.8868,11.78,13.49,42.97,0,110.5,13.11,12.58,253.5
"2016-04-24 01:14:30",1574000,23.63,294.2,7.656,1.44,16.9,104.849,11.69,13.38,43.88,0,110.5,13.11,12.48,256.2
"2016-04-24 01:15:00",1574001,22.65,291.9,6.66,1.705,17.13,104.8094,11.58,13.27,44.45,0,110.5,13.11,12.38,253.9
"2016-04-24 01:15:30",1574002,21.88,290.6,7.351,1.394,17.49,104.7692,11.48,13.17,45.07,0,110.5,13.12,12.27,252.6
"2016-04-24 01:16:00",1574003,21.13,292.5,6.588,1.485,17.39,104.7315,11.39,13.06,45.47,0,110.5,13.12,12.18,254.5
"2016-04-24 01:16:30",1574004,19.71,294.2,6.484,1.481,16.88,104.6966,11.3,12.97,46.14,0,110.5,13.12,12.09,256.2
"2016-04-24 01:17:00",1574005,20.03,292.6,6.868,1.473,16.94,104.6594,11.2,12.85,46.03,0,110.5,13.12,11.99,254.6
"2016-04-24 01:17:30",1574006,20.57,291.3,6.813,1.3,17.5,104.6332,11.13,12.7,45.4,0,110.5,13.12,11.92,253.3
"2016-04-24 01:18:00",1574007,19.64,290.8,6.971,1.488,15.45,104.6062,11.06,12.57,46.23,0,110.5,13.12,11.86,252.8
"2016-04-24 01:18:30",1574008,19.16,284.7,6.069,1.434,14.42,104.5921,11.03,12.41,46.44,0,110.5,13.13,11.82,246.7
"2016-04-24 01:19:00",1574009,19.42,287.4,6.866,1.852,15.47,104.5687,10.97,12.35,46.4,0,110.5,13.13,11.76,249.4
"2016-04-24 01:19:30",1574010,19.74,290.1,7.799,1.763,16.61,104.5591,10.94,12.4,47.26,0,110.5,13.13,11.73,252.1
"2016-04-24 01:20:00",1574011,20.39,292.8,6.803,1.475,17.72,104.5346,10.88,12.38,46.54,0,110.5,13.13,11.67,254.8
"2016-04-24 01:20:30",1574012,18.74,292.5,8.61,1.722,17.67,104.5331,10.88,12.35,47.35,0,110.5,13.13,11.67,254.5
"2016-04-24 01:21:00",1574013,17.33,294.5,7.398,1.486,16.86,104.5331,10.88,12.22,48.06,0,110.4,13.13,11.67,256.5
"2016-04-24 01:21:30",1574014,18.62,289.6,7.332,1.537,17.14,104.525,10.86,12.22,47.75,0,110.5,13.13,11.65,251.6
"2016-04-24 01:22:00",1574015,16.2,288.4,6.464,1.274,15.04,104.5114,10.82,12.1,47.88,0,110.5,13.13,11.61,250.4
"2016-04-24 01:22:30",1574016,15.14,282.6,2.517,0.539,13.77,104.4996,10.79,11.95,47.93,0,110.5,13.18,11.58,244.6
"2016-04-24 01:23:00",1574017,17.25,284,9.49,1.45,16.58,104.4993,10.79,12.1,47.17,0,110.5,13.13,11.58,246.0
"2016-04-24 01:23:30",1574018,18.64,289.3,7.313,1.932,18.37,104.5002,10.79,12.14,47.14,0,110.5,13.13,11.58,251.3
"2016-04-24 01:24:00",1574019,18.52,285.3,8.75,1.316,17.65,104.5107,10.82,12.04,46.24,0,110.4,13.13,11.61,247.3
"2016-04-24 01:24:30",1574020,18.9,286.5,6.908,1.555,17.86,104.535,10.88,12.07,46.76,0,110.4,13.13,11.67,248.5
"2016-04-24 01:25:00",1574021,17.61,284.7,6.331,1.289,16.63,104.5611,10.95,12.07,45.42,0,110.4,13.13,11.74,246.7
"2016-04-24 01:25:30",1574022,16.43,282.1,4.627,0.754,15.79,104.5944,11.03,11.92,45.03,0,110.4,13.14,11.83,244.1
"2016-04-24 01:26:00",1574023,16.28,284.3,6.345,1.941,16.86,104.6283,11.12,12.1,45.1,0,110.4,13.14,11.91,246.3
"2016-04-24 01:26:30",1574024,17.26,286.9,7.289,1.637,19.45,104.6688,11.22,12.21,42.4,0,110.4,13.14,12.02,248.9
"2016-04-24 01:27:00",1574025,15.71,285,7.562,1.512,18.34,104.7238,11.37,12.18,41.09,0,110.4,13.13,12.16,247.0
"2016-04-24 01:27:30",1574026,15.04,285.3,7.118,1.408,19.69,104.7843,11.52,12.36,40.9,0,110.4,13.13,12.31,247.3
"2016-04-24 01:28:00",1574027,12.38,276.7,2.471,0.433,16.9,104.8498,11.69,12.31,40.7,0,110.4,13.17,12.48,238.7
"2016-04-24 01:28:30",1574028,11.46,276,7.855,1.556,17.93,104.9116,11.85,12.5,40.65,0,110.4,13.13,12.64,238.0
"2016-04-24 01:29:00",1574029,11.73,277.3,7.452,1.477,19.34,104.978,12.02,12.66,40.41,0,110.4,13.13,12.81,239.3
"2016-04-24 01:29:30",1574030,9.24,274.2,3.095,0.207,16.66,105.0419,12.18,12.66,39.74,0,110.4,13.18,12.97,236.2
"2016-04-24 01:30:00",1574031,8.65,277.1,3.05,0.475,16.7,105.0943,12.31,12.76,39.27,0,110.4,13.18,13.11,239.1
"2016-04-24 01:30:30",1574032,10.37,280.7,7.903,1.286,18.43,105.1466,12.45,12.97,38.76,0,110.4,13.14,13.24,242.7
"2016-04-24 01:31:00",1574033,9.72,284.5,7.462,1.356,19.25,105.1873,12.55,13.2,38.35,0,110.4,13.14,13.35,246.5
"2016-04-24 01:31:30",1574034,10,285.4,5.612,0.934,18.12,105.2233,12.64,13.11,37.76,0,110.4,13.14,13.44,247.4
"2016-04-24 01:32:00",1574035,11.48,276.8,3.366,0.747,17.43,105.2646,12.75,13.21,37.3,0,110.4,13.19,13.55,238.8
"2016-04-24 01:32:30",1574036,12.12,274.9,7.534,1.246,19.02,105.3113,12.87,13.43,36.93,0,110.4,13.14,13.67,236.9
"2016-04-24 01:33:00",1574037,11.49,271.6,7.336,1.349,20.05,105.36,12.99,13.63,37.05,0,110.4,13.14,13.79,233.6
"2016-04-24 01:33:30",1574038,10.54,264.5,5.02,0.837,17.81,105.4035,13.11,13.55,36.45,0,110.4,13.14,13.90,226.5
"2016-04-24 01:34:00",1574039,10.53,261.2,3.693,0.652,17.15,105.4427,13.21,13.65,35.88,0,110.4,13.19,14.00,223.2
"2016-04-24 01:34:30",1574040,10.26,261.2,2.464,0.415,17.13,105.4774,13.29,13.77,35.57,0,110.4,13.19,14.09,223.2
"2016-04-24 01:35:00",1574041,10.7,265.7,8.48,1.573,18.7,105.5067,13.37,13.95,35.38,0,110.4,13.15,14.17,227.7
"2016-04-24 01:35:30",1574042,10.7,263.4,7.892,1.32,18.74,105.5307,13.43,14.06,35.17,0,110.4,13.15,14.23,225.4
"2016-04-24 01:36:00",1574043,10.75,259,2.503,0.318,17.32,105.5519,13.49,14.03,34.89,0,110.4,13.19,14.28,221.0
"2016-04-24 01:36:30",1574044,11.52,258.6,3.459,0.679,17.5,105.579,13.55,14.13,34.79,0,110.4,13.15,14.35,220.6
"2016-04-24 01:37:00",1574045,14.03,265,7.356,1.215,20.09,105.5922,13.59,14.29,34.92,0,110.4,13.15,14.39,227.0
"2016-04-24 01:37:30",1574046,13.57,261.4,6.893,1.271,19.07,105.6173,13.65,14.38,34.69,0,110.4,13.15,14.45,223.4
"2016-04-24 01:38:00",1574047,12.82,256.4,1.469,0.419,17.8,105.6402,13.71,14.34,34.14,0,110.4,13.19,14.51,218.4
"2016-04-24 01:38:30",1574048,12.82,255,1.295,0.182,17.89,105.6537,13.75,14.39,33.59,0,110.4,13.19,14.55,217.0
"2016-04-24 01:39:00",1574049,11.37,254.1,1.166,0.382,18.08,105.6813,13.82,14.45,33.43,0,110.4,13.19,14.62,216.1
"2016-04-24 01:39:30",1574050,12,254.1,1.383,0.815,17.97,105.6966,13.86,14.53,33.36,0,110.4,13.19,14.66,216.1
"2016-04-24 01:40:00",1574051,13.8,257.6,6.746,1.473,19.25,105.7169,13.91,14.62,33.5,0,110.4,13.15,14.71,219.6
"2016-04-24 01:40:30",1574052,14.5,264.8,7.43,1.438,20.55,105.7239,13.93,14.82,33.12,0,110.4,13.15,14.73,226.8
"2016-04-24 01:41:00",1574053,14.36,259.2,5.599,0.814,19.15,105.7513,14,14.69,31.18,0,110.4,13.15,14.80,221.2
"2016-04-24 01:41:30",1574054,15.19,258.1,1.42,0.431,18.17,105.7758,14.06,14.75,30.09,0,110.4,13.2,14.86,220.1
"2016-04-24 01:42:00",1574055,15.5,258.6,1.223,0.338,17.89,105.8071,14.14,14.83,29.68,0,110.4,13.19,14.94,220.6
"2016-04-24 01:42:30",1574056,15.06,258.3,1.021,0.35,17.31,105.8308,14.2,14.91,31.22,0,110.4,13.19,15.00,220.3
"2016-04-24 01:43:00",1574057,16.04,260.4,1.397,0.419,18.27,105.8542,14.26,14.96,29.63,0,110.4,13.19,15.06,222.4
"2016-04-24 01:43:30",1574058,16.33,259.9,0.835,0.26,18.5,105.8773,14.32,15.02,28.76,0,110.4,13.19,15.12,221.9
"2016-04-24 01:44:00",1574059,16.68,260.6,0.887,0.251,18.51,105.9004,14.38,15.08,28.53,0,110.4,13.19,15.18,222.6
"2016-04-24 01:44:30",1574060,17.01,257.5,1.144,0.7,17.61,105.9236,14.44,15.15,29.24,0,110.4,13.19,15.24,219.5
"2016-04-24 01:45:00",1574061,16.04,259.1,6.449,1.291,17.94,105.936,14.47,15.28,32.14,0,110.5,13.14,15.27,221.1
"2016-04-24 01:45:30",1574062,18.37,268.5,6.527,1.352,21.65,105.9255,14.44,15.51,30.99,0,110.5,13.14,15.24,230.5
"2016-04-24 01:46:00",1574063,18.21,264,7.007,1.322,21.86,105.9222,14.43,15.54,29.88,0,110.5,13.14,15.24,226.0
"2016-04-24 01:46:30",1574064,18.08,264.5,6.757,1.457,20.48,105.9222,14.43,15.57,30.32,0,110.5,13.14,15.24,226.5
"2016-04-24 01:47:00",1574065,15.96,255.4,2.925,0.513,17,105.9222,14.43,15.29,30.21,0,110.5,13.14,15.24,217.4